Regional Weather Roundup
Issued by NWS Wakefield, VA

Home | Current Version | Previous Version | Text Only | Print | Product List | Glossary Off
Versions: 1 2 3 4 5 6 7 8 9 10 11 12 13 14 15 16 17 18 19 20 21 22 23 24 25 26 27 28 29 30 31 32 33 34 35 36 37 38 39 40 41 42 43 44 45 46 47 48 49 50

000
ASUS41 KAKQ 270015
RWRAKQ

REGIONAL WEATHER ROUNDUP
NATIONAL WEATHER SERVICE WAKEFIELD VA
800 PM EDT WED APR 26 2017

Note: "fair" indicates few or no clouds below 12,000 feet with no
significant weather and/or obstructions to visibility. * = Denotes
station may not report precipitation (e.g., rain,snow,etc.),
thunder or fog.

VAZ042-051-052>054-056-270100-
NORTHERN VIRGINIA

CITY           SKY/WX    TMP DP  RH WIND       PRES   REMARKS
WASH NATIONAL  MOCLDY    67  59  75 E7        29.80R
DULLES         PTCLDY    67  57  70 E7        29.78S
FORT BELVOIR   CLEAR     65  59  79 CALM      29.79R
QUANTICO       PTCLDY    68  63  84 SE5       29.80R
FREDERICKSBRG* CLEAR     71  62  73 E5        29.78S
STAFFORD*      CLEAR     67  61  79 E3        29.82S
WARRENTON      CLEAR     69  58  67 E7        29.78S
CULPEPER*      CLEAR     69  63  83 CALM      29.79R
MANASSAS*        N/A     67  59  75 SE7       29.79R
LEESBURG*      CLEAR     68  61  77 E6        29.80S
WINCHESTER     CLEAR     66  59  77 E3        29.78R
FRONT ROYAL*   CLEAR     70  61  73 CALM      29.77R
LURAY*         CLEAR     70  61  73 N3        29.77R
$$

VAZ048-049-060>072-079>083-270100-
CENTRAL AND SOUTH CENTRAL VIRGINIA

CITY           SKY/WX    TMP DP  RH WIND       PRES   REMARKS
RICHMOND       PTCLDY    71  60  68 SE5       29.79R
CHESTERFIELD*  FAIR      72  48  43 SE3       29.81R
PETERSBURG*    CLEAR     65  62  87 CALM      29.80S
HANOVER        CLEAR     66  61  84 CALM      29.80R
TAPPAHANNOCK*  CLEAR     67  59  75 E5        29.81R
QUINTON*       FAIR      69  63  82 S6        29.79R
CHARLOTTSVILLE CLEAR     75  59  57 SE6       29.77R
GORDONSVILLE*  PTCLDY    73  61  67 CALM      29.77S
ORANGE*        CLEAR     70  59  68 CALM      29.78R
LOUISA*        CLEAR     72  66  83 SE3       29.78R
BUMPASS*       FAIR      69  62  76 CALM      29.78S
FARMVILLE*     CLEAR     73  63  69 SE3       29.77R
CREWE*         FAIR      68  68 100 CALM      29.79S
FORT PICKETT*  FAIR      69  64  83 S5        29.80R
CHASE CITY*    FAIR      70  66  86 CALM      29.80R
CLARKSVILLE*   FAIR      68  68 100 CALM      29.80R
SOUTH HILL*    CLEAR     69  65  88 CALM      29.86R
LAWRENCEVILLE* FAIR      69  64  84 CALM      29.80R
EMPORIA*       CLEAR     70  63  78 CALM      29.81S
$$

VAZ088>098-270100-
SOUTHEAST VIRGINIA

CITY           SKY/WX    TMP DP  RH WIND       PRES   REMARKS
NORFOLK        CLEAR     69  59  70 SE6       29.81R
VIRGINIA BEACH PTCLDY    63  57  81 SE7       29.81S
NORFOLK NAVAL  PTCLDY    67  57  70 SE7       29.83R
WEST POINT*    CLEAR     66  61  83 CALM      29.82R
SALUDA*        FAIR      61  60  96 E5        29.82R
NEWPORT NEWS   CLEAR     65  61  87 VRB3      29.81R
LANGLEY AFB    CLEAR     67  60  77 E5        29.81R
FORT EUSTIS    CLEAR     71  61  71 E3        29.79R
WILLIAMSBURG*  CLEAR     68  63  83 CALM      29.82R
HR EXEC AP*    FAIR      64  57  77 CALM      29.80R
FRANKLIN*      CLEAR     69  63  80 CALM      29.81S
US460-WAKEFLD  CLEAR     69  61  75 E3        29.81R
$$

VAZ020-022-025-037-045-270100-
WEST CENTRAL AND SOUTHWEST VIRGINIA

CITY           SKY/WX    TMP DP  RH WIND       PRES   REMARKS
STAUNTON*      CLEAR     72  59  63 SE5       29.79S
WAYNESBORO*    CLEAR     72  60  65 S7        29.79R
HOT SPRINGS VA CLEAR     66  50  55 CALM      29.89S
LYNCHBURG      CLEAR     71  61  70 S7        29.79R
DANVILLE       CLEAR     72  63  73 CALM      29.78S
SOUTH BOSTON*  FAIR      72  62  71 CALM      29.79R
MARTINSVILLE   CLEAR     70  60  68 CALM      29.81R
ROANOKE        CLEAR     75  61  61 SE12      29.78S
BLACKSBURG     CLEAR     75  59  57 S8        29.83S
DUBLIN*        CLEAR     74  55  50 S7        29.81S
MARION*        CLEAR     75  59  58 CALM      29.82S
HILLSVILLE*    CLEAR     68  61  77 CALM      29.84S
RICHLANDS*     FAIR      76  40  27 CALM      29.78F
WISE*          PTCLDY    73  48  40 CALM      29.78F
ABINGDON*      CLEAR     76  56  48 E5        29.75F
$$

MDZ021>025-VAZ099-100-270100-
SOUTHERN MARYLAND AND THE DELMARVA PENINSULA

CITY           SKY/WX    TMP DP  RH WIND       PRES   REMARKS
PATUXENT RIVER PTCLDY    61  59  93 CALM      29.81R
BAY BRIDGE APT CLOUDY    63  57  82 S3        29.81R
LEONARDTOWN    CLEAR     61  55  82 CALM      29.83R
DOVER          CLOUDY    63  63 100 CALM      29.80R
GEORGETOWN     CLOUDY    63  60  90 SW5       29.81R
EASTON         MOCLDY    64  57  77 CALM      29.85R
CAMBRIDGE      PTCLDY    61  59  94 SW3       29.82R
SALISBURY      MOCLDY    60  59  96 E3        29.81R
OCEAN CITY     CLOUDY    54  54 100 SW5       29.83R FOG
WALLOPS ISLAND CLOUDY    60  59  96 SE5       29.83R
ACCOMACK*      CLOUDY    64  51  62 S5        29.82S
$$

NCZ012>017-030>032-270100-
NORTH CENTRAL AND EASTERN NORTH CAROLINA

CITY           SKY/WX    TMP DP  RH WIND       PRES   REMARKS
ROANOKE RAPIDS FAIR      70  63  78 S3        29.80S
RALEIGH        PTCLDY    74  62  66 CALM      29.80S
ELIZABETH CITY CLEAR     69  63  81 S5        29.83R
AHOSKIE*         N/A     68  64  87 CALM      29.81S
EDENTON*       PTCLDY    71  65  80 CALM      29.83S
CURRITUCK*     CLOUDY    67  61  81 CALM      29.84S
KILL DEVIL HLS PTCLDY    66  59  79 CALM      29.83S
MANTEO         CLEAR     67  64  89 S5        29.85R
CAPE HATTERAS  CLEAR     71  65  81 S5        29.85S HAZE
TARBORO*       NOT AVBL
GOLDSBORO      PTCLDY    76  67  72 S3        29.80R
WASHINGTON     PTCLDY    71  64  80 CALM      29.82S
GREENVILLE     CLEAR     72  66  83 CALM      29.84S
NEW BERN       MOCLDY    73  64  73 S8        29.84R
WILMINGTON     CLEAR     74  63  68 SW10      29.84R
$$

VAZ048-270100-
ELSEWHERE

CITY           SKY/WX    TMP DP  RH WIND       PRES   REMARKS
HARRISBURG PA  PTCLDY    63  58  83 S3        29.78S
BALTIMORE      MOCLDY    64  60  87 S3        29.80R
ANNAPOLIS      CLOUDY    63  59  87 SE3       29.80R
ANDREWS AFB    CLEAR     62  58  86 SE6       29.80R
PHILADELPHIA   CLOUDY    63  56  78 S3        29.80R
HENDERSON NC   CLEAR     70  60  71 CALM      29.80R
GREENSBORO     PTCLDY    74  62  66 S7        29.79S
ROCKY MOUNT    CLEAR     69  66  90 CALM      29.80S
$$

VAZ100-270100-
MARINE

STATION/POSITION TIME  TEMP    WIND        PRES    WAVE   SWELL
                       AIR SEA DIR/SP/G            HT/PER HT/PER
                 (UTC) (F)     (DEG/KT/KT) (MB)    (FT/S) (FT/S)
CAPE MAY NJ      2348   57 56  140/  4/  5 1009.0R
LEWES DE         2348   60 56  160/  2/  2 1009.3R
15NM E FENWICK I 2350   52 51  140/  4/  6 1010.1R   6/10   7/10
OCEAN-CITY-INLET 2348   54 54  220/  5/  6 1010.3R
WACHAPREAGUE VA  2348   60 62  170/  6/  8 1009.5R
THOMAS POINT MD  0000   60 57  130/  4/  4   N/A
GOOSES REEF MD   0000   61 54   70/  2/  2 1010.1    0
COVE POINT MD    2348   61     200/  4/  4 1010.1R
SOLOMONS ISLAND  2348   61 60  110/  3/  4   N/A
BISHOPS HEAD MD  2348   62 62  150/  3/  4 1010.1R
PINEY POINT MD   2348          150/  7/  8   N/A
POTOMAC MD       0000   61 60  160/  6/  6 1008.7
CAMBRIDGE MD     2342   63 62                N/A
LEWISETTA VA     2348   63 63  130/  5/  5 1009.2R
RAPPAHANNOCK LGT 2348           70/  5/  6 1010.3R
STINGRAY PT      0000   62 63  120/  6/  8 1009.8
YORK RVR RNG VA  2348   63     130/  8/  8 1009.0R
YORKTOWN VA      2348   64 64   90/  6/  6 1009.2R
JAMESTOWN VA     0000   69 67  110/  4/  6   N/A     0
DOMINION TERM VA 2348   70      80/  3/  4 1009.4R
KIPTOPEKE VA     2348      63  170/  5/  5   N/A
CHES BAY BRIDGE  2348   67 62  160/  5/  8 1009.4R
CAPE HENRY VA    2348   64     150/  6/  7   N/A
WILLOUBY STN VA  2348   67     120/  7/  8 1010.4R
S CRANEY ISL VA  2348   69     120/  3/  4 1009.1R
CAPE HENRY BUOY  2342      58                N/A     4/ 9   2/11
1ST LANDING BUOY 0000   63 62              1009.6    2/ 5
CAPE CHARLES BUO 2351      60                N/A     4/10   2/11
64NM E OF VA BCH 2350   58 58  150/  6/  6 1011.0R   5/10   5/10
DUCK PIER NC     2348   70 60  170/  4/  5 1009.7R
44100 DUCK FRF   2335      59                N/A     4/10   2/12
44056 DUCK FRF   2330      62                N/A     4/10   2/13
OREGON INLET NC  2348          110/  5/  6 1010.5R
HATTERAS NC      2348   71 69  180/  2/  4 1010.5R
DIAMOND SHLS NC  2350   73 77  220/ 10/ 14 1010.8R   5/ 9   5/ 9
CAPE LOOKOUT NC  0000   72     200/ 11/ 13 1010.6R
$$



USA.gov is the U.S. government's official web portal to all federal, state and local government web resources and services.